Location: 81360 Arifat, France
(43.7204°N, 2.3408°E)
Time: 21:47:36
(UTC+01:00)

Injun/Solrad 3 - Visible Passes

Search period start: 05 December 2025 00:00
Search period end: 15 December 2025 00:00
Orbit: 876 x 980 km, 66.8° (Epoch: 04 December)

Date Brightness Start Highest point End Pass type
(mag) Time Alt. Az. Time Alt. Az. Time Alt. Az.
05 Dec 9.6 04:20:55 26° ENE 04:20:55 26° ENE 04:24:10 10° NE visible
05 Dec 8.0 06:04:37 44° WNW 06:05:22 47° NW 06:11:00 10° NNE visible
06 Dec 9.5 04:32:40 28° ENE 04:32:40 28° ENE 04:35:34 10° NE visible
06 Dec 8.4 06:16:21 33° NW 06:16:37 33° NW 06:21:52 10° NNE visible
07 Dec 9.4 04:44:12 27° NE 04:44:12 27° NE 04:46:45 10° NE visible
07 Dec 8.9 06:27:52 24° NW 06:27:57 24° NW 06:32:38 10° NNE visible
08 Dec 9.4 04:55:33 25° NNE 04:55:33 25° NNE 04:57:49 10° NNE visible
08 Dec 9.2 06:39:13 18° NW 06:39:24 18° NW 06:43:19 10° N visible
09 Dec 9.5 05:06:47 22° NNE 05:06:47 22° NNE 05:08:48 10° NNE visible
09 Dec 9.5 06:50:27 13° NW 06:50:57 14° NNW 06:53:49 10° N visible
10 Dec 9.6 05:17:56 19° N 05:17:56 19° N 05:19:41 10° NNE visible
10 Dec 9.7 07:01:35 10° NW 07:02:37 10° NNW 07:03:44 10° NNW visible
11 Dec 9.7 05:29:00 16° N 05:29:00 16° N 05:30:28 10° NNE visible
12 Dec 9.8 05:40:01 14° N 05:40:01 14° N 05:41:11 10° N visible
13 Dec 9.9 05:50:58 12° N 05:50:58 12° N 05:51:46 10° N visible
14 Dec 10.0 06:01:53 10° N 06:01:53 10° N 06:01:59 10° N visible
